This is the latest recevied weather packets stored in our database for station/object KF4WSW-13. If no packets are shown the sender has not sent any weather packets the latest 10 day(s).
| Time | Temp. | Humidity | Pressure | Rain* | Wind** | Luminosity | Snow |
|---|---|---|---|---|---|---|---|
| 1777390690 | 26.67° C | 63% | 1018.3 hPa | 0 mm | - | 711 W/m² | - |
| 1777390387 | 26.11° C | 65% | 1018.5 hPa | 0 mm | - | 702 W/m² | - |
| 1777390083 | 25.56° C | 65% | 1018.3 hPa | 0 mm | - | 693 W/m² | - |
| 1777389780 | 26.11° C | 68% | 1018.3 hPa | 0 mm | - | 684 W/m² | - |
| 1777389476 | 25° C | 66% | 1018.5 hPa | 0 mm | - | 675 W/m² | - |
| 1777389174 | 25.56° C | 67% | 1018.7 hPa | 0 mm | - | 664 W/m² | - |
| 1777388871 | 26.11° C | 67% | 1018.3 hPa | 0 mm | - | 653 W/m² | - |
| 1777388568 | 25.56° C | 70% | 1018.5 hPa | 0 mm | - | 643 W/m² | - |
| 1777388264 | 25.56° C | 69% | 1018.6 hPa | 0 mm | - | 631 W/m² | - |
| 1777387964 | 25° C | 71% | 1018.7 hPa | 0 mm | - | 620 W/m² | - |
| 1777387661 | 25° C | 72% | 1018.5 hPa | 0 mm | - | 608 W/m² | - |
| 1777387357 | 23.89° C | 74% | 1018.5 hPa | 0 mm | - | 595 W/m² | - |
| 1777387052 | 24.44° C | 73% | 1018.4 hPa | 0 mm | - | 581 W/m² | - |
| 1777386749 | 24.44° C | 74% | 1018.6 hPa | 0 mm | - | 568 W/m² | - |
| 1777386446 | 24.44° C | 75% | 1018.5 hPa | 0 mm | - | 552 W/m² | - |
| 1777386143 | 23.89° C | 75% | 1018.4 hPa | 0 mm | - | 540 W/m² | - |
| 1777385839 | 23.89° C | 76% | 1018.5 hPa | 0 mm | - | 526 W/m² | - |
| 1777385536 | 23.89° C | 76% | 1018.4 hPa | 0 mm | - | 514 W/m² | - |
| 1777385234 | 23.33° C | 78% | 1018.3 hPa | 0 mm | - | 498 W/m² | - |
| 1777384929 | 23.89° C | 77% | 1018.1 hPa | 0 mm | - | 484 W/m² | - |
| 1777384627 | 23.33° C | 79% | 1018.3 hPa | 0 mm | - | 468 W/m² | - |
| 1777384327 | 22.78° C | 79% | 1018.3 hPa | 0 mm | - | 454 W/m² | - |
| 1777384022 | 22.78° C | 81% | 1018.3 hPa | 0 mm | - | 438 W/m² | - |
| 1777383717 | 22.22° C | 81% | 1018.1 hPa | 0 mm | - | 424 W/m² | - |
| 1777383415 | 22.22° C | 82% | 1018.4 hPa | 0 mm | - | 407 W/m² | - |
* Rain latest hour (hover to see other rain measurements)
** Current wind speed in m/s (hover to see current wind gust speed)